Flag for Canada Weather past 2 weeks in Dieppe, New Brunswick, Canada

Now
64 °F

Scattered clouds.


Feels Like: 64 °F
Forecast: 43 / 66 °F
Wind: 14 mph from South

Location: Moncton

Current Time: Sep 18, 2014 at 11:29:24 AM

Latest Report: Sep 18, 2014 at 11:00 AM


Visibility: 15 mi

Pressure: 29.86 "Hg

Humidity: 64%

Dew point: 52 °F

Location of DieppeLocation

Historic Weather in Dieppe — Graph

°F

Dieppe temperature yesterday

Maximum temperature yesterday: 68 °F (at 3:00 PM)
Minimum temperature yesterday: 48 °F (at 7:00 AM)
Average temperature yesterday: 57 °F

Past Weeks' High & Low Weather Summary

 TemperatureHumidityPressure
High84 °F (Sep 6, 2:00 PM)100% (Sep 3, 11:00 AM)30.47 "Hg (Sep 3, 11:00 AM)
Low39 °F (Sep 9, 7:04 AM)24% (Sep 8, 3:00 PM)29.65 "Hg (Sep 6, 6:00 PM)
Average59 °F73%30.03 "Hg
* Reported Sep 3 10:00 AM — Sep 18 10:00 AM, Dieppe, Weather by CustomWeather, © 2014

Note: Actual official high and low records may vary slightly from our data, if they occured in-between our weather recording intervals... More about our weather records

Advertising

Dieppe weather history for previous 24 hours

 ConditionsComfort  
Time TempWeatherWind HumidityBarometerVisibility
10:00 AM
Sep 18
61 °FBroken clouds.14 mph72%29.88 "Hg15 mi
9:00 AM54 °FBroken clouds.9 mph88%29.90 "Hg15 mi
8:00 AM50 °FPassing clouds.5 mph88%29.89 "Hg15 mi
7:00 AM46 °FPassing clouds.7 mph87%29.89 "Hg15 mi
6:00 AM48 °FPassing clouds.9 mph82%29.88 "Hg15 mi
5:00 AM46 °FPassing clouds.8 mph87%29.89 "Hg15 mi
4:00 AM46 °FPassing clouds.7 mph82%29.89 "Hg15 mi
3:00 AM50 °FClear.6 mph76%29.91 "Hg15 mi
2:00 AM50 °FClear.7 mph76%29.92 "Hg15 mi
1:00 AM50 °FPassing clouds.7 mph82%29.93 "Hg15 mi
12:00 AM52 °FPassing clouds.7 mph82%29.94 "Hg15 mi
11:00 PM
Sep 17
54 °FPassing clouds.7 mph82%29.96 "Hg15 mi
10:00 PM55 °FPassing clouds.9 mph77%29.96 "Hg15 mi
9:00 PM57 °FPassing clouds.6 mph72%29.95 "Hg15 mi
8:00 PM59 °FScattered clouds.3 mph68%29.93 "Hg15 mi
7:00 PM59 °FBroken clouds.5 mph63%29.91 "Hg15 mi
6:00 PM63 °FPartly sunny.5 mph59%29.90 "Hg15 mi
5:00 PM66 °FBroken clouds.13 mph43%29.90 "Hg15 mi
4:00 PM68 °FPartly sunny.14 mph40%29.89 "Hg15 mi
3:00 PM68 °FPartly sunny.13 mph40%29.89 "Hg15 mi
2:00 PM66 °FPartly sunny.13 mph40%29.90 "Hg15 mi
1:00 PM66 °FScattered clouds.10 mph46%29.91 "Hg15 mi
12:00 PM63 °FPassing clouds.13 mph56%29.91 "Hg15 mi
11:00 AM59 °FPassing clouds.9 mph68%29.92 "Hg15 mi
Weather by CustomWeather, © 2014

See weather overviewHow to use our weather pages